Time,TemperatureF,DewpointF,PressureIn,WindDirection,WindDirectionDegrees,WindSpeedMPH,WindSpeedGustMPH,Humidity,HourlyPrecipIn,Conditions,Clouds,dailyrainin,SoftwareType,DateUTC
2013-01-09 00:02:00,30.0,22.0,30.28,SW,215,0.0,-999.0,71,-99.99,,,0.00,weatherlink.com 1.10,2013-01-09 05:02:00,
2013-01-09 00:17:00,29.3,21.0,30.28,SW,215,0.0,-999.0,72,-99.99,,,0.00,weatherlink.com 1.10,2013-01-09 05:17:00,
2013-01-09 00:47:00,27.8,20.0,30.28,SW,215,0.0,-999.0,73,-99.99,,,0.00,weatherlink.com 1.10,2013-01-09 05:47:00,
2013-01-09 01:02:00,27.0,20.0,30.27,SW,215,0.0,-999.0,74,-99.99,,,0.00,weatherlink.com 1.10,2013-01-09 06:02:00,
2013-01-09 01:17:00,27.0,20.0,30.27,SW,215,0.0,-999.0,76,-99.99,,,0.00,weatherlink.com 1.10,2013-01-09 06:17:00,
2013-01-09 01:32:00,27.3,21.0,30.27,SW,215,0.0,-999.0,77,-99.99,,,0.00,weatherlink.com 1.10,2013-01-09 06:32:00,
2013-01-09 01:48:00,27.8,22.0,30.27,SW,215,0.0,-999.0,78,-99.99,,,0.00,weatherlink.com 1.10,2013-01-09 06:48:00,
2013-01-09 02:02:00,29.1,22.0,30.27,SW,215,0.0,-999.0,76,-99.99,,,0.00,weatherlink.com 1.10,2013-01-09 07:02:00,
2013-01-09 02:17:00,28.8,22.0,30.27,SW,215,0.0,-999.0,76,-99.99,,,0.00,weatherlink.com 1.10,2013-01-09 07:17:00,
2013-01-09 02:33:00,28.7,22.0,30.26,SW,215,0.0,-999.0,76,-99.99,,,0.00,weatherlink.com 1.10,2013-01-09 07:33:00,
2013-01-09 02:47:00,29.0,23.0,30.26,SW,215,0.0,-999.0,77,-99.99,,,0.00,weatherlink.com 1.10,2013-01-09 07:47:00,
2013-01-09 03:02:00,28.5,22.0,30.25,SW,215,0.0,-999.0,77,-99.99,,,0.00,weatherlink.com 1.10,2013-01-09 08:02:00,
2013-01-09 03:17:00,28.8,23.0,30.24,SW,215,0.0,-999.0,78,-99.99,,,0.00,weatherlink.com 1.10,2013-01-09 08:17:00,
2013-01-09 03:32:00,28.2,22.0,30.23,SW,215,0.0,-999.0,78,-99.99,,,0.00,weatherlink.com 1.10,2013-01-09 08:32:00,
2013-01-09 03:48:00,28.1,22.0,30.23,SW,215,0.0,-999.0,79,-99.99,,,0.00,weatherlink.com 1.10,2013-01-09 08:48:00,
2013-01-09 04:02:00,28.2,23.0,30.22,SW,215,0.0,-999.0,80,-99.99,,,0.00,weatherlink.com 1.10,2013-01-09 09:02:00,
2013-01-09 04:17:00,29.3,24.0,30.21,SW,215,0.0,-999.0,81,-99.99,,,0.00,weatherlink.com 1.10,2013-01-09 09:17:00,
2013-01-09 04:33:00,29.8,24.0,30.21,SW,215,0.0,-999.0,80,-99.99,,,0.00,weatherlink.com 1.10,2013-01-09 09:33:00,
2013-01-09 04:48:00,30.0,25.0,30.20,SW,215,0.0,-999.0,80,-99.99,,,0.00,weatherlink.com 1.10,2013-01-09 09:48:00,
2013-01-09 05:02:00,29.7,24.0,30.19,SW,215,0.0,-999.0,80,-99.99,,,0.00,weatherlink.com 1.10,2013-01-09 10:02:00,
2013-01-09 05:17:00,29.4,24.0,30.19,SW,215,0.0,-999.0,80,-99.99,,,0.00,weatherlink.com 1.10,2013-01-09 10:17:00,
2013-01-09 05:32:00,29.4,24.0,30.18,SW,215,0.0,-999.0,80,-99.99,,,0.00,weatherlink.com 1.10,2013-01-09 10:32:00,
2013-01-09 05:48:00,29.3,24.0,30.18,SW,215,0.0,-999.0,81,-99.99,,,0.00,weatherlink.com 1.10,2013-01-09 10:48:00,
2013-01-09 06:03:00,29.7,24.0,30.18,SW,215,0.0,-999.0,80,-99.99,,,0.00,weatherlink.com 1.10,2013-01-09 11:03:00,
2013-01-09 06:18:00,29.8,25.0,30.18,SW,215,0.0,-999.0,81,-99.99,,,0.00,weatherlink.com 1.10,2013-01-09 11:18:00,
2013-01-09 06:32:00,33.4,27.0,30.17,South,175,0.0,-999.0,77,-99.99,,,0.00,weatherlink.com 1.10,2013-01-09 11:32:00,
2013-01-09 06:48:00,35.8,27.0,30.16,South,180,0.0,-999.0,70,-99.99,,,0.00,weatherlink.com 1.10,2013-01-09 11:48:00,
2013-01-09 07:02:00,36.0,26.0,30.14,SSW,194,0.0,-999.0,68,-99.99,,,0.00,weatherlink.com 1.10,2013-01-09 12:02:00,
2013-01-09 07:18:00,37.0,26.0,30.12,South,188,0.0,-999.0,65,-99.99,,,0.00,weatherlink.com 1.10,2013-01-09 12:18:00,
2013-01-09 07:33:00,38.2,27.0,30.12,SSW,194,0.0,-999.0,64,-99.99,,,0.00,weatherlink.com 1.10,2013-01-09 12:33:00,
2013-01-09 07:47:00,38.5,27.0,30.12,South,177,0.0,-999.0,63,-99.99,,,0.00,weatherlink.com 1.10,2013-01-09 12:47:00,
2013-01-09 08:03:00,38.9,27.0,30.12,South,179,0.0,-999.0,62,-99.99,,,0.00,weatherlink.com 1.10,2013-01-09 13:03:00,
2013-01-09 08:17:00,39.2,27.0,30.10,SSW,194,2.0,-999.0,61,-99.99,,,0.00,weatherlink.com 1.10,2013-01-09 13:17:00,
2013-01-09 08:47:00,39.9,27.0,30.10,South,171,1.0,-999.0,61,-99.99,,,0.00,weatherlink.com 1.10,2013-01-09 13:47:00,
2013-01-09 09:03:00,41.1,28.0,30.09,SSW,209,0.0,-999.0,60,-99.99,,,0.00,weatherlink.com 1.10,2013-01-09 14:03:00,
2013-01-09 09:17:00,42.5,28.0,30.09,SW,219,0.0,-999.0,57,-99.99,,,0.00,weatherlink.com 1.10,2013-01-09 14:17:00,
2013-01-09 09:33:00,43.3,28.0,30.09,SW,234,0.0,-999.0,55,-99.99,,,0.00,weatherlink.com 1.10,2013-01-09 14:33:00,
2013-01-09 09:48:00,43.1,28.0,30.07,SW,216,0.0,-999.0,56,-99.99,,,0.00,weatherlink.com 1.10,2013-01-09 14:48:00,
2013-01-09 10:15:00,44.1,30.0,30.05,SSW,205,0.0,-999.0,57,-99.99,,,0.01,weatherlink.com 1.10,2013-01-09 15:15:00,
2013-01-09 10:32:00,43.8,30.0,30.05,SW,226,2.0,-999.0,58,-99.99,,,0.01,weatherlink.com 1.10,2013-01-09 15:32:00,
2013-01-09 10:48:00,43.6,30.0,30.05,SSW,209,2.0,-999.0,60,-99.99,,,0.01,weatherlink.com 1.10,2013-01-09 15:48:00,
2013-01-09 11:03:00,44.1,32.0,30.04,SSW,205,9.0,-999.0,63,-99.99,,,0.01,weatherlink.com 1.10,2013-01-09 16:03:00,
2013-01-09 11:17:00,43.6,33.0,30.04,SW,235,2.0,-999.0,66,-99.99,,,0.01,weatherlink.com 1.10,2013-01-09 16:17:00,
2013-01-09 11:33:00,43.3,33.0,30.03,SW,231,8.0,-999.0,68,-99.99,,,0.01,weatherlink.com 1.10,2013-01-09 16:33:00,
2013-01-09 11:47:00,43.2,34.0,30.02,SW,234,2.0,-999.0,69,-99.99,,,0.01,weatherlink.com 1.10,2013-01-09 16:47:00,
2013-01-09 12:02:00,43.2,34.0,30.01,South,188,6.0,-999.0,69,-99.99,,,0.01,weatherlink.com 1.10,2013-01-09 17:02:00,
2013-01-09 12:17:00,43.8,34.0,30.00,SW,230,5.0,-999.0,69,-99.99,,,0.02,weatherlink.com 1.10,2013-01-09 17:17:00,
2013-01-09 12:32:00,44.2,34.0,30.01,WSW,249,5.0,-999.0,68,-99.99,,,0.02,weatherlink.com 1.10,2013-01-09 17:32:00,
2013-01-09 12:47:00,44.2,34.0,30.00,SW,224,6.0,-999.0,68,-99.99,,,0.02,weatherlink.com 1.10,2013-01-09 17:47:00,
2013-01-09 13:02:00,44.1,34.0,30.00,SSW,202,14.0,-999.0,69,-99.99,,,0.02,weatherlink.com 1.10,2013-01-09 18:02:00,
2013-01-09 13:17:00,43.6,34.0,30.00,SW,216,11.0,-999.0,70,-99.99,,,0.02,weatherlink.com 1.10,2013-01-09 18:17:00,
2013-01-09 13:32:00,43.5,34.0,30.00,WSW,256,15.0,-999.0,70,-99.99,,,0.02,weatherlink.com 1.10,2013-01-09 18:32:00,
2013-01-09 13:47:00,43.3,34.0,30.01,SW,223,5.0,-999.0,70,-99.99,,,0.02,weatherlink.com 1.10,2013-01-09 18:47:00,
2013-01-09 14:02:00,42.9,34.0,30.01,WSW,257,17.0,-999.0,71,-99.99,,,0.02,weatherlink.com 1.10,2013-01-09 19:02:00,
2013-01-09 14:17:00,42.6,34.0,30.02,South,186,14.0,-999.0,72,-99.99,,,0.02,weatherlink.com 1.10,2013-01-09 19:17:00,
2013-01-09 14:32:00,42.2,34.0,30.03,West,271,10.0,-999.0,73,-99.99,,,0.02,weatherlink.com 1.10,2013-01-09 19:32:00,
2013-01-09 14:47:00,41.6,34.0,30.04,West,270,2.0,-999.0,74,-99.99,,,0.02,weatherlink.com 1.10,2013-01-09 19:47:00,
2013-01-09 15:02:00,41.3,34.0,30.04,SW,214,5.0,-999.0,76,-99.99,,,0.02,weatherlink.com 1.10,2013-01-09 20:02:00,
2013-01-09 15:17:00,41.2,34.0,30.06,WSW,240,11.0,-999.0,76,-99.99,,,0.02,weatherlink.com 1.10,2013-01-09 20:17:00,
2013-01-09 15:32:00,40.8,34.0,30.06,West,268,7.0,-999.0,76,-99.99,,,0.02,weatherlink.com 1.10,2013-01-09 20:32:00,
2013-01-09 15:47:00,40.6,34.0,30.07,WSW,244,5.0,-999.0,76,-99.99,,,0.02,weatherlink.com 1.10,2013-01-09 20:47:00,
2013-01-09 16:17:00,40.2,34.0,30.07,WSW,238,5.0,-999.0,77,-99.99,,,0.02,weatherlink.com 1.10,2013-01-09 21:17:00,
2013-01-09 16:32:00,39.8,33.0,30.07,WSW,247,18.0,-999.0,78,-99.99,,,0.02,weatherlink.com 1.10,2013-01-09 21:32:00,
2013-01-09 16:47:00,39.5,34.0,30.09,SSW,204,4.0,-999.0,79,-99.99,,,0.02,weatherlink.com 1.10,2013-01-09 21:47:00,
2013-01-09 17:02:00,39.3,34.0,30.09,SSW,205,9.0,-999.0,80,-99.99,,,0.02,weatherlink.com 1.10,2013-01-09 22:02:00,
2013-01-09 17:17:00,39.3,33.0,30.10,SW,215,13.0,-999.0,79,-99.99,,,0.02,weatherlink.com 1.10,2013-01-09 22:17:00,
2013-01-09 17:32:00,39.5,33.0,30.11,SW,217,5.0,-999.0,78,-99.99,,,0.02,weatherlink.com 1.10,2013-01-09 22:32:00,
2013-01-09 17:47:00,39.5,33.0,30.11,WSW,242,11.0,-999.0,77,-99.99,,,0.02,weatherlink.com 1.10,2013-01-09 22:47:00,
2013-01-09 18:02:00,39.6,33.0,30.12,WSW,249,7.0,-999.0,76,-99.99,,,0.02,weatherlink.com 1.10,2013-01-09 23:02:00,
2013-01-09 18:17:00,39.6,33.0,30.13,SW,216,4.0,-999.0,76,-99.99,,,0.02,weatherlink.com 1.10,2013-01-09 23:17:00,
2013-01-09 18:32:00,39.6,33.0,30.14,WSW,245,6.0,-999.0,76,-99.99,,,0.02,weatherlink.com 1.10,2013-01-09 23:32:00,
2013-01-09 18:47:00,39.8,33.0,30.15,South,188,12.0,-999.0,76,-99.99,,,0.02,weatherlink.com 1.10,2013-01-09 23:47:00,
2013-01-09 19:02:00,39.6,33.0,30.15,WNW,283,1.0,-999.0,76,-99.99,,,0.02,weatherlink.com 1.10,2013-01-10 00:02:00,
2013-01-09 19:17:00,39.5,33.0,30.16,West,265,5.0,-999.0,76,-99.99,,,0.02,weatherlink.com 1.10,2013-01-10 00:17:00,
2013-01-09 19:32:00,39.6,32.0,30.17,NW,309,2.0,-999.0,75,-99.99,,,0.02,weatherlink.com 1.10,2013-01-10 00:32:00,
2013-01-09 19:47:00,39.6,32.0,30.18,West,261,7.0,-999.0,75,-99.99,,,0.02,weatherlink.com 1.10,2013-01-10 00:47:00,
2013-01-09 20:02:00,39.3,32.0,30.20,NW,312,3.0,-999.0,76,-99.99,,,0.02,weatherlink.com 1.10,2013-01-10 01:02:00,
2013-01-09 20:17:00,39.3,32.0,30.21,NW,311,7.0,-999.0,74,-99.99,,,0.02,weatherlink.com 1.10,2013-01-10 01:17:00,
2013-01-09 20:32:00,39.3,31.0,30.22,West,259,0.0,-999.0,73,-99.99,,,0.02,weatherlink.com 1.10,2013-01-10 01:32:00,
2013-01-09 20:47:00,38.9,31.0,30.26,West,263,0.0,-999.0,74,-99.99,,,0.02,weatherlink.com 1.10,2013-01-10 01:47:00,
2013-01-09 21:02:00,38.8,31.0,30.28,WSW,244,0.0,-999.0,74,-99.99,,,0.02,weatherlink.com 1.10,2013-01-10 02:02:00,
2013-01-09 21:17:00,38.8,31.0,30.29,West,263,0.0,-999.0,74,-99.99,,,0.02,weatherlink.com 1.10,2013-01-10 02:17:00,
2013-01-09 21:32:00,38.6,31.0,30.30,SW,233,0.0,-999.0,74,-99.99,,,0.02,weatherlink.com 1.10,2013-01-10 02:32:00,
2013-01-09 21:47:00,38.5,31.0,30.30,WNW,285,2.0,-999.0,74,-99.99,,,0.02,weatherlink.com 1.10,2013-01-10 02:47:00,
2013-01-09 22:02:00,38.5,30.0,30.31,WSW,247,3.0,-999.0,72,-99.99,,,0.02,weatherlink.com 1.10,2013-01-10 03:02:00,
2013-01-09 22:17:00,38.3,30.0,30.32,SW,229,3.0,-999.0,71,-99.99,,,0.02,weatherlink.com 1.10,2013-01-10 03:17:00,
2013-01-09 22:32:00,38.2,29.0,30.33,West,281,0.0,-999.0,70,-99.99,,,0.02,weatherlink.com 1.10,2013-01-10 03:32:00,
2013-01-09 22:47:00,38.3,28.0,30.34,West,264,0.0,-999.0,67,-99.99,,,0.02,weatherlink.com 1.10,2013-01-10 03:47:00,
2013-01-09 23:02:00,38.3,28.0,30.34,SW,226,3.0,-999.0,66,-99.99,,,0.02,weatherlink.com 1.10,2013-01-10 04:02:00,
2013-01-09 23:48:00,38.3,27.0,30.38,SW,229,0.0,-999.0,63,-99.99,,,0.02,weatherlink.com 1.10,2013-01-10 04:48:00,